Manteo, NC

12:23 PM EDT on March 26, 2017 (GMT -0400)
Dare County Regional

Weather History for KMQI - July, 2013

Change the Weather History Date:

Friday, July 26, 2013

  Actual Average Record
Temperature  
Mean Temperature 72 °F -  
Max Temperature 78 °F 82 °F 95 °F (2005)
Min Temperature 67 °F 73 °F 63 °F (2015)
Cooling Degree Days 8    
Growing Degree Days 22 (Base 50)    
Moisture  
Dew Point 66 °F    
Average Humidity 80    
Maximum Humidity 91    
Minimum Humidity 65    
Precipitation  
Precipitation 0.00 in - - ()
Sea Level Pressure  
Sea Level Pressure 30.06 in    
Wind  
Wind Speed 10 mph (NE)    
Max Wind Speed 18 mph    
Max Gust Speed 23 mph    
Visibility 10 miles    
Events Rain    
Averages and records for this station are not official NWS values.
T = Trace of Precipitation, MM = Missing Value Source: NWS Daily Summary

Daily Weather History Graph

Daily Weather History Graph

Search for Another Location

Airport or City:

Trip Planner

Search our weather history database for the weather conditions in past years. The results will help you decide how hot, cold, wet, or windy it might be!

Date:

Astronomy

Jul. 26, 2013 Rise Set
Actual Time 6:05 AM EDT 8:12 PM EDT
Civil Twilight 5:37 AM EDT 8:40 PM EDT
Nautical Twilight 5:02 AM EDT 9:15 PM EDT
Astronomical Twilight 4:24 AM EDT 9:53 PM EDT
Moon 10:37 PM EDT 10:28 AM EDT
Length of Visible Light 15h 03m
Length of Day
14h 06m
Waning Gibbous, 80% of the Moon is Illuminated
Jul 26
Waning Gibbous
Jul 29
Last Quarter
Aug 6
New
Aug 14
First Quarter
Aug 20
Full

Hourly Weather History & Observations

Time (EDT) Temp. Dew Point Humidity Pressure Visibility Wind Dir Wind Speed Gust Speed Precip Events Conditions
12:15 AM 69.4 °F 65.8 °F 88% 30.00 in 10.0 mi North 15.0 mph 21.9 mph N/A   Overcast
12:35 AM 69.3 °F 66.2 °F 90% 30.00 in 10.0 mi North 13.8 mph 19.6 mph N/A   Overcast
12:55 AM 69.3 °F 66.2 °F 90% 30.00 in 10.0 mi NNE 18.4 mph 23.0 mph N/A   Overcast
1:15 AM 68.9 °F 65.7 °F 89% 29.99 in 10.0 mi NNE 13.8 mph 21.9 mph N/A   Overcast
1:35 AM 68.4 °F 65.3 °F 90% 29.99 in 10.0 mi North 13.8 mph 21.9 mph N/A   Overcast
1:55 AM 68.5 °F 65.5 °F 90% 29.99 in 10.0 mi NNE 12.7 mph 17.3 mph N/A   Overcast
2:15 AM 68.4 °F 65.3 °F 90% 29.99 in 10.0 mi NE 12.7 mph - N/A   Overcast
2:35 AM 68.4 °F 65.5 °F 90% 29.99 in 10.0 mi NNE 11.5 mph - N/A   Overcast
2:55 AM 68.4 °F 65.7 °F 91% 29.99 in 10.0 mi NNE 10.4 mph - N/A   Overcast
3:15 AM 68.7 °F 65.8 °F 90% 29.99 in 10.0 mi NNE 9.2 mph - N/A   Overcast
3:35 AM 68.5 °F 65.7 °F 90% 29.99 in 10.0 mi NNE 10.4 mph - N/A   Overcast
3:55 AM 68.5 °F 65.5 °F 90% 29.99 in 10.0 mi NE 9.2 mph - N/A   Overcast
4:15 AM 68.5 °F 65.5 °F 90% 30.00 in 10.0 mi NNE 10.4 mph - N/A   Overcast
4:35 AM 68.4 °F 65.5 °F 90% 30.00 in 10.0 mi NNE 6.9 mph - N/A   Overcast
4:55 AM 68.2 °F 65.5 °F 91% 30.01 in 10.0 mi NNE 6.9 mph - N/A   Overcast
5:15 AM 68.0 °F 65.1 °F 90% 30.02 in 10.0 mi NNE 8.1 mph - N/A   Overcast
5:35 AM 68.0 °F 64.9 °F 90% 30.03 in 10.0 mi NNE 5.8 mph - N/A   Overcast
5:55 AM 68.0 °F 64.9 °F 90% 30.04 in 10.0 mi North 6.9 mph - N/A   Overcast
6:15 AM 67.8 °F 64.4 °F 89% 30.04 in 10.0 mi NNE 9.2 mph - N/A   Overcast
6:35 AM 67.5 °F 64.4 °F 90% 30.06 in 10.0 mi NNE 9.2 mph - N/A   Overcast
6:55 AM 67.6 °F 64.4 °F 89% 30.06 in 10.0 mi NNE 10.4 mph - N/A   Overcast
7:15 AM 67.8 °F 64.4 °F 89% 30.07 in 10.0 mi NNE 9.2 mph - N/A   Overcast
7:35 AM 68.2 °F 64.6 °F 88% 30.07 in 10.0 mi NNE 5.8 mph - N/A   Overcast
7:55 AM 68.2 °F 64.9 °F 89% 30.08 in 10.0 mi North 5.8 mph - N/A   Overcast
8:15 AM 68.4 °F 64.8 °F 88% 30.09 in 10.0 mi North 5.8 mph - N/A   Overcast
8:35 AM 68.9 °F 64.8 °F 87% 30.08 in 10.0 mi North 6.9 mph - N/A   Overcast
8:55 AM 68.9 °F 64.4 °F 86% 30.08 in 10.0 mi NNE 8.1 mph - N/A   Overcast
9:15 AM 71.1 °F 65.3 °F 82% 30.08 in 10.0 mi North 8.1 mph - N/A   Mostly Cloudy
9:35 AM 72.1 °F 65.8 °F 80% 30.09 in 10.0 mi NNE 6.9 mph - N/A   Scattered Clouds
9:55 AM 72.9 °F 65.7 °F 78% 30.09 in 10.0 mi North 9.2 mph - N/A   Scattered Clouds
10:15 AM 73.2 °F 66.0 °F 78% 30.09 in 10.0 mi NNE 8.1 mph - N/A   Scattered Clouds
10:35 AM 74.1 °F 65.5 °F 74% 30.10 in 10.0 mi NNW 8.1 mph - N/A   Scattered Clouds
10:55 AM 73.9 °F 65.7 °F 75% 30.10 in 10.0 mi North 5.8 mph - N/A   Scattered Clouds
11:15 AM 74.7 °F 66.0 °F 74% 30.10 in 10.0 mi North 5.8 mph - N/A   Scattered Clouds
11:35 AM 75.9 °F 65.5 °F 70% 30.09 in 10.0 mi NNE 8.1 mph - N/A   Clear
11:55 AM 75.6 °F 64.9 °F 69% 30.09 in 10.0 mi North 6.9 mph - N/A   Scattered Clouds
12:15 PM 74.5 °F 65.8 °F 74% 30.09 in 10.0 mi ENE 6.9 mph - N/A   Mostly Cloudy
12:35 PM 75.7 °F 66.2 °F 72% 30.09 in 10.0 mi NNE 4.6 mph - N/A   Mostly Cloudy
12:55 PM 75.9 °F 65.8 °F 71% 30.09 in 10.0 mi ENE 4.6 mph - N/A   Clear
1:15 PM 74.7 °F 66.4 °F 75% 30.09 in 10.0 mi East 6.9 mph - N/A   Mostly Cloudy
1:35 PM 75.0 °F 66.7 °F 75% 30.08 in 10.0 mi East 6.9 mph - N/A   Scattered Clouds
1:55 PM 76.3 °F 66.7 °F 72% 30.08 in 10.0 mi ESE 5.8 mph - N/A   Clear
2:15 PM 76.8 °F 66.7 °F 71% 30.07 in 10.0 mi ENE 5.8 mph - N/A   Clear
2:35 PM 76.8 °F 66.4 °F 70% 30.08 in 10.0 mi ESE 4.6 mph - N/A   Clear
2:55 PM 76.8 °F 66.0 °F 69% 30.08 in 10.0 mi NE 6.9 mph - N/A   Clear
3:15 PM 77.9 °F 65.5 °F 65% 30.07 in 10.0 mi ENE 6.9 mph - N/A   Clear
3:35 PM 77.5 °F 65.7 °F 67% 30.07 in 10.0 mi East 6.9 mph - N/A   Clear
3:55 PM 77.7 °F 66.4 °F 68% 30.07 in 10.0 mi NE 6.9 mph - N/A   Clear
4:15 PM 77.2 °F 66.7 °F 70% 30.06 in 10.0 mi ENE 9.2 mph - N/A   Clear
4:35 PM 77.0 °F 66.4 °F 70% 30.07 in 10.0 mi East 8.1 mph - N/A   Clear
4:55 PM 78.1 °F 66.4 °F 67% 30.07 in 10.0 mi East 9.2 mph - N/A   Clear
5:15 PM 78.1 °F 66.6 °F 68% 30.07 in 10.0 mi East 9.2 mph - N/A   Clear
5:35 PM 77.7 °F 66.4 °F 68% 30.06 in 10.0 mi ENE 8.1 mph - N/A   Clear
5:55 PM 77.4 °F 66.4 °F 69% 30.06 in 10.0 mi East 10.4 mph - N/A   Clear
6:15 PM 77.0 °F 65.7 °F 68% 30.06 in 5.0 mi East 9.2 mph - N/A Rain Rain
6:35 PM 76.1 °F 66.2 °F 71% 30.06 in 5.0 mi East 10.4 mph - N/A   Drizzle
6:55 PM 75.6 °F 65.5 °F 71% 30.07 in 4.0 mi East 10.4 mph - N/A   Heavy Drizzle
7:15 PM 74.5 °F 65.1 °F 72% 30.07 in 7.0 mi ESE 8.1 mph - N/A   Light Drizzle
7:35 PM 74.1 °F 65.5 °F 74% 30.07 in 10.0 mi East 8.1 mph - N/A   Light Drizzle
7:55 PM 72.9 °F 65.3 °F 77% 30.07 in 10.0 mi ESE 6.9 mph - N/A   Clear
8:15 PM 72.7 °F 65.8 °F 79% 30.08 in 10.0 mi ESE 6.9 mph - N/A   Clear
8:35 PM 72.5 °F 65.5 °F 79% 30.08 in 10.0 mi ESE 8.1 mph - N/A   Clear
8:55 PM 72.1 °F 65.3 °F 79% 30.08 in 10.0 mi ESE 4.6 mph - N/A   Clear
9:15 PM 71.8 °F 65.5 °F 80% 30.09 in 10.0 mi SE 4.6 mph - N/A   Clear
9:35 PM 72.0 °F 65.3 °F 79% 30.09 in 10.0 mi SE 4.6 mph - N/A   Clear
9:55 PM 71.6 °F 65.3 °F 80% 30.09 in 10.0 mi SE 3.5 mph - N/A   Clear
10:15 PM 71.6 °F 65.3 °F 80% 30.09 in 10.0 mi SE 5.8 mph - N/A   Clear
10:35 PM 71.8 °F 65.3 °F 80% 30.09 in 10.0 mi SE 5.8 mph - N/A   Clear
10:55 PM 71.2 °F 65.3 °F 81% 30.09 in 10.0 mi SE 4.6 mph - N/A   Clear
11:15 PM 70.9 °F 65.3 °F 82% 30.08 in 10.0 mi SE 3.5 mph - N/A   Clear
11:35 PM 70.7 °F 65.3 °F 83% 30.08 in 10.0 mi SE 3.5 mph - N/A   Clear
11:55 PM 70.7 °F 65.3 °F 83% 30.08 in 10.0 mi SE 3.5 mph - N/A   Clear